Flag for U.S.A. Weather past 2 weeks in Waterbury, Connecticut, U.S.A.

63 °F

Scattered clouds.

Feels Like: 63 °F
Forecast: 49 / 65 °F
Wind: 5 mph from Southwest

Location: Oxford

Current Time: Oct 13, 2015 at 8:11:23 PM

Latest Report: Oct 13, 2015 at 6:50 PM

Visibility: 10 mi

Pressure: 29.54 "Hg

Humidity: 68%

Dew point: 52 °F

Location of WaterburyLocation

Historic Weather in Waterbury — Graph


Waterbury temperature yesterday

Maximum temperature yesterday: 73 °F (at 2:50 PM)
Minimum temperature yesterday: 45 °F (at 6:50 AM)
Average temperature yesterday: 56 °F

Past Weeks' High & Low Weather Summary

High81 °F (Sep 29, 1:55 PM)83% (Sep 28, 11:55 PM)30.41 "Hg (Sep 28, 11:55 PM)
Low39 °F (Oct 10, 10:35 PM)36% (Oct 12, 4:50 PM)29.52 "Hg (Oct 13, 2:50 PM)
Average56 °F67%30.05 "Hg
* Reported Sep 28 6:52 PM — Oct 13 6:50 PM, Waterbury, Weather by CustomWeather, © 2015

Note: Actual official high and low records may vary slightly from our data, if they occured in-between our weather recording intervals... More about our weather records


Waterbury weather history for previous 24 hours

Time TempWeatherWind HumidityBarometerVisibility
6:50 PM
Tue, Oct 13
63 °FScattered clouds.5 mph68%29.54 "Hg10 mi
5:50 PM66 °FPartly sunny.5 mph64%29.54 "Hg10 mi
4:50 PM66 °FBroken clouds.5 mph68%29.53 "Hg10 mi
3:55 PM66 °FPartly sunny.6 mph68%29.53 "Hg10 mi
2:50 PM68 °FCloudy.7 mph69%29.52 "Hg10 mi
1:50 PM70 °FBroken clouds.8 mph64%29.55 "Hg10 mi
12:51 PM68 °FMostly cloudy.8 mph69%29.57 "Hg10 mi
11:52 AM66 °FBroken clouds.10 mph68%29.59 "Hg10 mi
10:52 AM66 °FPartly sunny.9 mph68%29.60 "Hg7 mi
9:52 AM61 °FScattered clouds.No wind77%29.60 "Hg7 mi
8:52 AM61 °FPartly sunny.No wind77%29.60 "Hg7 mi
7:52 AM61 °FFog.No wind72%29.62 "Hg0 mi
5:55 AM61 °FLow clouds.5 mph72%29.65 "Hg0 mi
5:35 AM59 °FLow clouds.3 mph77%29.65 "Hg0 mi
5:15 AM59 °FLow clouds.No wind77%29.66 "Hg0 mi
4:55 AM59 °FLow clouds.3 mph77%29.66 "Hg0 mi
4:35 AM59 °FLow clouds.3 mph77%29.66 "Hg0 mi
4:15 AM57 °FPassing clouds.5 mph77%29.66 "Hg3 mi
3:55 AM57 °FPassing clouds.6 mph72%29.67 "Hg2 mi
3:35 AM57 °FLow clouds.No wind72%29.67 "Hg3 mi
3:15 AM57 °FPassing clouds.3 mph72%29.68 "Hg4 mi
2:55 AM57 °FClear.No wind72%29.69 "Hg2 mi
2:35 AM57 °FClear.No wind77%29.71 "Hg3 mi
2:15 AM57 °FPassing clouds.6 mph72%29.71 "Hg3 mi
1:55 AM57 °FPassing clouds.6 mph72%29.71 "Hg2 mi
1:35 AM55 °FClear.5 mph77%29.72 "Hg3 mi
1:15 AM55 °FClear.3 mph77%29.72 "Hg6 mi
12:55 AM55 °FClear.3 mph77%29.72 "Hg5 mi
12:35 AM55 °FClear.No wind77%29.73 "Hg7 mi
12:15 AM55 °FClear.5 mph72%29.73 "Hg7 mi
11:55 PM
Mon, Oct 12
55 °FClear.No wind72%29.74 "Hg9 mi
11:35 PM55 °FClear.3 mph72%29.75 "Hg10 mi
10:55 PM55 °FClear.7 mph72%29.75 "Hg10 mi
10:35 PM57 °FClear.6 mph67%29.75 "Hg10 mi
10:15 PM55 °FClear.8 mph67%29.75 "Hg10 mi
9:55 PM55 °FClear.3 mph72%29.76 "Hg10 mi
9:35 PM57 °FClear.5 mph67%29.76 "Hg10 mi
9:15 PM57 °FClear.7 mph67%29.77 "Hg10 mi
8:55 PM59 °FClear.7 mph63%29.78 "Hg10 mi
Weather by CustomWeather, © 2015

See weather overviewHow to use our weather pages